When you browse on this site, cookies collect data to enhance your experience and personalize the content and advertising you see.
Visit our Privacy Policy to learn more. By continuing to use the site, you agree to this use of cookies and data.
  • Em Portugal
  • Lista de países
  • Para 7 dias
  • Temperatura da água
  • Mapa do tempo
  • Widgets de tempo
  • user-avatar
    Iniciar Sessão

    Previsão horária em Sumgait

    Hoje, 21 Agosto, Quarta-feira

    Tempo Temperatura Precipitação Vento Pressão Humidade
    00:00 +25°C° 0 mm 0 m/s 740 mmHg 33%
    01:00 +24°C° 0 mm 0 m/s 740 mmHg 33%
    02:00 +24°C° 0 mm 0 m/s 740 mmHg 34%
    03:00 +25°C° 0 mm 1 m/s 740 mmHg 36%
    04:00 +26°C° 0 mm 1 m/s 740 mmHg 35%
    05:00 +26°C° 0 mm 1 m/s 740 mmHg 33%
    06:00 +27°C° 0 mm 1 m/s 740 mmHg 31%
    07:00 +29°C° 0 mm 1 m/s 740 mmHg 27%
    08:00 +29°C° 0 mm 0 m/s 741 mmHg 22%
    09:00 +32°C° 0 mm 0 m/s 741 mmHg 18%
    10:00 +35°C° 0 mm 1 m/s 740 mmHg 16%
    11:00 +37°C° 0 mm 2 m/s 740 mmHg 15%
    12:00 +38°C° 0 mm 3 m/s 740 mmHg 13%
    13:00 +38°C° 0 mm 4 m/s 740 mmHg 15%
    14:00 +39°C° 0 mm 5 m/s 739 mmHg 17%
    15:00 +38°C° 0 mm 6 m/s 739 mmHg 18%
    16:00 +36°C° 0 mm 5 m/s 739 mmHg 22%
    17:00 +35°C° 0 mm 4 m/s 738 mmHg 26%
    18:00 +33°C° 0 mm 4 m/s 738 mmHg 30%
    19:00 +31°C° 0 mm 3 m/s 738 mmHg 32%
    20:00 +30°C° 0 mm 2 m/s 738 mmHg 34%
    21:00 +29°C° 0 mm 1 m/s 738 mmHg 35%
    22:00 +28°C° 0 mm 1 m/s 738 mmHg 35%
    23:00 +28°C° 0 mm 1 m/s 738 mmHg 34%

    Amanhã, 22 Agosto, Quinta-feira

    Tempo Temperatura Precipitação Vento Pressão Humidade
    00:00 +27°C° 0 mm 1 m/s 737 mmHg 33%
    01:00 +27°C° 0 mm 1 m/s 737 mmHg 35%
    02:00 +24°C° 0 mm 0 m/s 737 mmHg 36%
    03:00 +23°C° 0 mm 0 m/s 737 mmHg 38%
    04:00 +24°C° 0 mm 0 m/s 737 mmHg 35%
    05:00 +26°C° 0 mm 1 m/s 737 mmHg 32%
    06:00 +27°C° 0 mm 1 m/s 737 mmHg 30%
    07:00 +29°C° 0 mm 1 m/s 737 mmHg 26%
    08:00 +32°C° 0 mm 1 m/s 738 mmHg 22%
    09:00 +34°C° 0 mm 1 m/s 738 mmHg 18%
    10:00 +36°C° 0 mm 2 m/s 738 mmHg 17%
    11:00 +37°C° 0 mm 3 m/s 737 mmHg 16%
    12:00 +38°C° 0 mm 3 m/s 737 mmHg 15%
    13:00 +38°C° 0 mm 4 m/s 737 mmHg 15%
    14:00 +38°C° 0 mm 4 m/s 737 mmHg 15%
    15:00 +38°C° 0 mm 4 m/s 736 mmHg 14%
    16:00 +37°C° 0 mm 4 m/s 736 mmHg 15%
    17:00 +37°C° 0 mm 3 m/s 736 mmHg 17%
    18:00 +36°C° 0 mm 3 m/s 736 mmHg 18%
    19:00 +34°C° 0 mm 2 m/s 737 mmHg 21%
    20:00 +31°C° 0 mm 1 m/s 737 mmHg 24%
    21:00 +30°C° 0 mm 1 m/s 737 mmHg 27%
    22:00 +29°C° 0 mm 1 m/s 737 mmHg 29%
    23:00 +27°C° 0 mm 0 m/s 737 mmHg 30%

    Depois de amanhã, 23 Agosto, Sexta-feira

    Tempo Temperatura Precipitação Vento Pressão Humidade
    00:00 +26°C° 0 mm 0 m/s 737 mmHg 32%
    01:00 +26°C° 0 mm 0 m/s 737 mmHg 33%
    02:00 +25°C° 0 mm 0 m/s 737 mmHg 34%
    03:00 +25°C° 0 mm 0 m/s 737 mmHg 35%
    04:00 +27°C° 0 mm 1 m/s 737 mmHg 33%
    05:00 +28°C° 0 mm 1 m/s 737 mmHg 32%
    06:00 +28°C° 0 mm 1 m/s 737 mmHg 31%
    07:00 +30°C° 0 mm 1 m/s 737 mmHg 28%
    08:00 +32°C° 0 mm 2 m/s 738 mmHg 24%
    09:00 +35°C° 0 mm 2 m/s 738 mmHg 21%
    10:00 +36°C° 0 mm 3 m/s 738 mmHg 20%
    11:00 +37°C° 0 mm 3 m/s 738 mmHg 19%
    12:00 +40°C° 0 mm 4 m/s 737 mmHg 18%
    13:00 +40°C° 0 mm 4 m/s 737 mmHg 18%
    14:00 +40°C° 0 mm 5 m/s 737 mmHg 18%
    15:00 +40°C° 0 mm 5 m/s 737 mmHg 18%
    16:00 +39°C° 0 mm 5 m/s 737 mmHg 19%
    17:00 +37°C° 0 mm 4 m/s 737 mmHg 21%
    18:00 +36°C° 0 mm 4 m/s 736 mmHg 22%
    19:00 +35°C° 0 mm 3 m/s 737 mmHg 25%
    20:00 +32°C° 0 mm 2 m/s 737 mmHg 29%
    21:00 +31°C° 0 mm 2 m/s 737 mmHg 32%
    22:00 +30°C° 0 mm 2 m/s 737 mmHg 34%
    23:00 +30°C° 0 mm 1 m/s 737 mmHg 36%

    24 Agosto, Sábado

    Tempo Temperatura Precipitação Vento Pressão Humidade
    00:00 +29°C° 0 mm 1 m/s 737 mmHg 38%
    01:00 +29°C° 0 mm 1 m/s 737 mmHg 37%
    02:00 +28°C° 0 mm 2 m/s 736 mmHg 36%
    03:00 +28°C° 0 mm 2 m/s 736 mmHg 36%
    04:00 +28°C° 0 mm 2 m/s 736 mmHg 35%
    05:00 +29°C° 0 mm 2 m/s 737 mmHg 34%
    06:00 +29°C° 0 mm 2 m/s 737 mmHg 33%
    07:00 +31°C° 0 mm 3 m/s 737 mmHg 31%
    08:00 +34°C° 0 mm 4 m/s 737 mmHg 29%
    09:00 +35°C° 0 mm 4 m/s 738 mmHg 27%
    10:00 +36°C° 0 mm 5 m/s 738 mmHg 26%
    11:00 +37°C° 0 mm 5 m/s 738 mmHg 24%
    12:00 +39°C° 0 mm 6 m/s 737 mmHg 23%
    13:00 +39°C° 0 mm 6 m/s 737 mmHg 23%
    14:00 +38°C° 0 mm 6 m/s 737 mmHg 23%
    15:00 +38°C° 0 mm 6 m/s 737 mmHg 23%
    16:00 +36°C° 0 mm 5 m/s 737 mmHg 24%
    17:00 +36°C° 0 mm 4 m/s 737 mmHg 24%
    18:00 +35°C° 0 mm 2 m/s 737 mmHg 25%
    19:00 +32°C° 0 mm 2 m/s 737 mmHg 27%
    20:00 +31°C° 0 mm 2 m/s 738 mmHg 29%
    21:00 +30°C° 0 mm 2 m/s 738 mmHg 32%
    22:00 +30°C° 0 mm 2 m/s 738 mmHg 33%
    23:00 +29°C° 0 mm 2 m/s 738 mmHg 34%

    25 Agosto, Domingo

    Tempo Temperatura Precipitação Vento Pressão Humidade
    00:00 +29°C° 0 mm 3 m/s 738 mmHg 35%
    01:00 +28°C° 0 mm 3 m/s 738 mmHg 35%
    02:00 +28°C° 0 mm 2 m/s 738 mmHg 35%
    03:00 +27°C° 0 mm 2 m/s 738 mmHg 35%
    04:00 +27°C° 0 mm 2 m/s 738 mmHg 36%
    05:00 +27°C° 0 mm 1 m/s 738 mmHg 36%
    06:00 +27°C° 0 mm 1 m/s 738 mmHg 36%
    07:00 +29°C° 0 mm 1 m/s 738 mmHg 32%
    08:00 +31°C° 0 mm 2 m/s 738 mmHg 27%
    09:00 +34°C° 0 mm 2 m/s 739 mmHg 23%
    10:00 +35°C° 0 mm 3 m/s 739 mmHg 20%
    11:00 +36°C° 0 mm 4 m/s 738 mmHg 18%
    12:00 +37°C° 0 mm 4 m/s 738 mmHg 16%
    13:00 +37°C° 0 mm 5 m/s 738 mmHg 15%
    14:00 +37°C° 0 mm 5 m/s 738 mmHg 14%
    15:00 +37°C° 0 mm 5 m/s 737 mmHg 14%
    16:00 +35°C° 0 mm 5 m/s 737 mmHg 15%
    17:00 +34°C° 0 mm 4 m/s 737 mmHg 16%
    18:00 +33°C° 0 mm 4 m/s 737 mmHg 17%
    19:00 +31°C° 0 mm 3 m/s 737 mmHg 21%
    20:00 +29°C° 0 mm 2 m/s 737 mmHg 24%
    21:00 +28°C° 0 mm 1 m/s 738 mmHg 27%
    22:00 +28°C° 0 mm 1 m/s 737 mmHg 28%
    23:00 +27°C° 0 mm 1 m/s 737 mmHg 28%

    26 Agosto, Segunda-feira

    Tempo Temperatura Precipitação Vento Pressão Humidade
    00:00 +27°C° 0 mm 1 m/s 737 mmHg 29%
    01:00 +26°C° 0 mm 1 m/s 737 mmHg 28%
    02:00 +26°C° 0 mm 1 m/s 737 mmHg 28%
    03:00 +26°C° 0 mm 1 m/s 737 mmHg 27%
    04:00 +26°C° 0 mm 1 m/s 737 mmHg 26%
    05:00 +27°C° 0 mm 1 m/s 737 mmHg 25%
    06:00 +25°C° 0 mm 0 m/s 737 mmHg 24%
    07:00 +29°C° 0 mm 1 m/s 738 mmHg 22%
    08:00 +30°C° 0 mm 1 m/s 738 mmHg 20%
    09:00 +32°C° 0 mm 2 m/s 738 mmHg 18%
    10:00 +34°C° 0 mm 3 m/s 738 mmHg 17%
    11:00 +35°C° 0 mm 4 m/s 738 mmHg 17%
    12:00 +36°C° 0 mm 4 m/s 738 mmHg 17%
    13:00 +35°C° 0 mm 6 m/s 738 mmHg 19%
    14:00 +35°C° 0 mm 8 m/s 738 mmHg 22%
    15:00 +34°C° 0 mm 9 m/s 738 mmHg 24%
    16:00 +33°C° 0 mm 10 m/s 738 mmHg 27%
    17:00 +32°C° 0 mm 10 m/s 738 mmHg 30%
    18:00 +31°C° 0 mm 11 m/s 738 mmHg 33%
    19:00 +29°C° 0 mm 10 m/s 738 mmHg 33%
    20:00 +29°C° 0 mm 9 m/s 739 mmHg 33%
    21:00 +29°C° 0 mm 9 m/s 739 mmHg 32%
    22:00 +29°C° 0 mm 8 m/s 739 mmHg 31%
    23:00 +29°C° 0 mm 7 m/s 739 mmHg 30%
    Mostrar mais